EST,Max TemperatureF,Mean TemperatureF,Min TemperatureF,Max Dew PointF,MeanDew PointF,Min DewpointF,Max Humidity, Mean Humidity, Min Humidity, Max Sea Level PressureIn, Mean Sea Level PressureIn, Min Sea Level PressureIn, Max VisibilityMiles, Mean VisibilityMiles, Min VisibilityMiles, Max Wind SpeedMPH, Mean Wind SpeedMPH, Max Gust SpeedMPH,PrecipitationIn, CloudCover, Events, WindDirDegrees
2014-2-1,55,38,21,32,23,19,100,56,25,30.27,30.19,30.09,10,10,10,8,1,,0.00,4,,179
2014-2-2,62,52,41,48,40,32,94,67,45,30.10,30.06,30.02,10,10,10,10,4,17,0.00,2,,216
2014-2-3,59,46,33,57,44,34,100,93,81,30.30,30.06,29.88,10,10,2,14,6,23,0.24,6,Rain,38
2014-2-4,41,37,33,37,34,32,100,91,70,30.43,30.30,30.12,10,8,2,12,7,,0.18,8,Rain,64
2014-2-5,51,43,35,46,38,28,100,91,57,30.12,29.93,29.79,10,6,1,15,3,22,0.05,5,Rain,258
2014-2-6,41,36,32,28,23,21,81,61,45,30.33,30.26,30.10,10,10,10,14,6,22,0.00,1,,4
2014-2-7,44,36,28,30,28,23,100,75,46,30.36,30.30,30.27,10,10,10,7,1,,0.00,2,,311
2014-2-8,46,38,30,32,29,27,100,80,49,30.30,30.22,30.14,10,10,10,7,1,,0.00,2,,35
2014-2-9,51,40,28,36,33,28,100,83,54,30.19,30.09,29.98,10,10,7,10,2,20,0.00,5,,181
2014-2-10,39,36,32,34,30,23,100,87,56,30.26,30.16,30.03,10,9,2,10,2,,0.00,6,Rain-Snow,11
2014-2-11,33,27,21,34,22,16,100,73,51,30.41,30.34,30.25,10,9,4,14,5,16,0.00,4,,48
2014-2-12,26,24,21,27,18,12,100,80,55,30.44,30.27,29.84,10,6,0,15,7,26,0.09,5,Snow,40
2014-2-13,35,30,26,34,31,27,100,98,75,29.83,29.58,29.44,10,5,0,14,8,23,0.25,7,Rain-Snow,337
2014-2-14,55,42,30,32,25,18,81,53,23,29.77,29.73,29.64,10,10,10,16,7,26,0.00,0,,230
2014-2-15,42,36,30,37,26,14,100,69,38,30.06,29.77,29.57,10,9,0,17,5,34,0.10,4,Rain,304
2014-2-16,50,39,28,28,23,16,93,61,37,30.19,30.08,30.01,10,10,3,14,4,18,0.00,3,Snow,267
2014-2-17,42,34,26,27,22,19,86,61,39,30.40,30.30,30.19,10,10,10,12,4,,0.00,1,,93
2014-2-18,60,46,32,34,26,16,100,53,17,30.22,30.17,30.10,10,10,7,14,3,26,0.00,1,Rain,253
2014-2-19,69,56,42,59,47,28,100,80,46,30.12,29.99,29.89,10,9,5,20,5,29,0.14,4,Rain-Thunderstorm,220
2014-2-20,68,54,41,55,42,34,100,62,39,30.24,30.11,29.98,10,10,7,15,4,20,0.00,2,,130
2014-2-21,68,50,33,61,52,34,100,87,63,30.05,29.91,29.81,10,9,0,21,11,33,0.33,6,Rain-Thunderstorm,214
2014-2-22,62,47,32,41,28,18,100,60,18,30.21,30.13,30.05,10,10,7,5,0,,0.00,0,,213
2014-2-23,68,50,32,37,33,28,100,60,26,30.12,30.01,29.89,10,10,10,13,3,18,0.00,0,,222
2014-2-24,55,44,32,37,24,12,69,43,22,30.16,30.05,29.89,10,10,10,14,6,22,0.00,0,,329
2014-2-25,50,38,26,28,22,14,93,60,25,30.14,30.04,29.97,10,10,10,8,2,,0.00,2,,9
2014-2-26,46,38,30,28,21,12,75,55,37,29.99,29.90,29.80,10,10,10,10,4,16,0.00,3,,13
2014-2-27,51,35,19,19,10,0,93,43,14,30.02,29.85,29.75,10,10,10,16,5,28,0.00,0,,294
2014-2-28,41,32,24,14,11,9,59,43,29,30.35,30.25,30.03,10,10,10,15,7,18,0.00,0,,60